CW8164 Weather Reports


time (UTC)temp
F
wind
direction
speed
knots
gust
knots
rain 1hr
in
rain 24hr
in
rain mn
in
humidity
%
barometer
mb
20260507094903 52 267 0.0 1.7 0.00 0.00 0.00 81 1021.0
20260507094402 52 147 0.9 1.7 0.00 0.00 0.00 80 1021.0
20260507093903 52 253 0.9 1.7 0.00 0.00 0.00 81 1021.0
20260507092902 53 250 0.0 2.6 0.00 0.00 0.00 81 1021.1
20260507092403 53 242 0.9 2.6 0.00 0.00 0.00 80 1021.1
20260507091903 53 262 0.9 2.6 0.00 0.00 0.00 82 1021.2
20260507091403 53 259 0.0 1.7 0.00 0.00 0.00 81 1021.2
20260507090904 53 254 0.0 2.6 0.00 0.00 0.00 82 1021.2
20260507090403 53 248 0.0 2.6 0.00 0.00 0.00 82 1021.2
20260507085402 53 250 0.0 1.7 0.00 0.00 0.00 82 1021.2
20260507084903 53 259 0.0 2.6 0.00 0.00 0.00 81 1021.1
20260507084403 53 307 0.9 2.6 0.00 0.00 0.00 81 1021.1
20260507083902 53 289 0.0 1.7 0.00 0.00 0.00 81 1021.1
20260507083403 53 222 0.0 1.7 0.00 0.00 0.00 81 1021.1
20260507082903 53 294 0.0 0.0 0.00 0.00 0.00 82 1021.2
20260507082402 53 328 0.0 1.7 0.00 0.00 0.00 81 1021.2
20260507081903 53 313 0.0 1.7 0.00 0.00 0.00 81 1021.2
20260507081402 53 290 0.9 1.7 0.00 0.00 0.00 81 1021.1
20260507080903 53 230 0.0 2.6 0.00 0.00 0.00 82 1021.1
20260507075903 53 262 0.9 1.7 0.00 0.00 0.00 81 1021.1
20260507075403 53 239 0.0 1.7 0.00 0.00 0.00 81 1021.1
20260507074902 53 172 0.9 1.7 0.00 0.00 0.00 81 1021.1
20260507074404 53 316 0.9 4.3 0.00 0.00 0.00 81 1021.2
20260507073902 53 262 0.9 4.3 0.00 0.00 0.00 81 1021.1
20260507073403 52 173 0.0 1.7 0.00 0.00 0.00 82 1021.1
20260507072403 52 283 0.0 2.6 0.00 0.00 0.00 83 1021.0
20260507071902 52 333 0.0 2.6 0.00 0.00 0.00 83 1021.0
20260507071402 52 241 0.0 1.7 0.00 0.00 0.00 83 1021.0
20260507070403 52 303 0.9 1.7 0.00 0.00 0.00 83 1021.0
20260507065902 51 220 0.0 1.7 0.00 0.00 0.00 83 1021.0
20260507065403 52 238 0.0 0.0 0.00 0.00 0.00 83 1021.0
20260507064903 52 238 0.0 0.0 0.00 0.00 0.00 83 1021.0
20260507064402 52 238 0.0 0.0 0.00 0.00 0.00 82 1021.0
20260507063902 52 238 0.0 1.7 0.00 0.00 0.00 82 1021.0
20260507063403 52 238 0.0 1.7 0.00 0.00 0.00 82 1020.9
20260507062903 52 228 0.0 1.7 0.00 0.00 0.00 82 1021.0
20260507061902 52 209 0.0 2.6 0.00 0.00 0.00 81 1021.0
20260507060902 53 273 0.0 1.7 0.00 0.00 0.00 80 1021.0
20260507055903 53 204 0.0 1.7 0.00 0.00 0.00 80 1021.1
20260507054903 54 281 0.0 1.7 0.00 0.00 0.00 79 1021.1
20260507053404 54 204 0.9 2.6 0.00 0.00 0.00 79 1021.0
20260507052902 54 276 0.9 2.6 0.00 0.00 0.00 79 1021.0
20260507052403 54 263 0.0 1.7 0.00 0.00 0.00 78 1021.0
20260507051902 55 267 0.0 4.3 0.00 0.00 0.00 78 1021.0
20260507051403 55 305 0.0 4.3 0.00 0.00 0.00 78 1021.0
20260507050902 55 201 0.0 2.6 0.00 0.00 0.00 77 1021.0
20260507050402 55 169 0.0 1.7 0.00 0.00 0.00 77 1021.0
20260507045902 55 194 0.0 2.6 0.00 0.00 0.00 77 1021.1
20260507044902 56 277 0.0 1.7 0.00 0.00 0.00 76 1021.1
20260507044403 56 286 0.0 2.6 0.00 0.00 0.00 76 1021.1
20260507043903 56 139 0.9 5.2 0.00 0.00 0.00 75 1021.1
20260507043402 56 238 1.7 5.2 0.00 0.00 0.00 75 1021.1
20260507042903 56 143 0.0 4.3 0.00 0.00 0.00 75 1021.0
20260507042402 56 256 0.0 2.6 0.00 0.00 0.00 75 1021.0
20260507041903 56 246 0.9 4.3 0.00 0.00 0.00 75 1021.1
20260507041402 56 217 0.9 4.3 0.00 0.00 0.00 75 1021.1
20260507040903 56 342 0.9 6.1 0.00 0.00 0.00 76 1021.0
20260507040403 56 319 0.9 7.8 0.00 0.00 0.00 75 1021.0
20260507035903 57 238 2.6 7.8 0.00 0.00 0.00 75 1020.9
20260507035403 57 281 0.9 10.4 0.00 0.00 0.00 75 1020.8
20260507034403 57 61 2.6 6.1 0.00 0.00 0.00 75 1020.7
20260507033903 57 247 0.0 2.6 0.00 0.00 0.00 76 1020.5
20260507033403 58 211 0.0 2.6 0.00 0.00 0.00 75 1020.4
20260507032903 58 281 0.9 2.6 0.00 0.00 0.00 75 1020.3
20260507032403 58 234 0.0 6.1 0.00 0.00 0.00 75 1020.3
20260507031903 58 259 0.9 6.1 0.00 0.00 0.00 75 1020.3
20260507031403 58 238 0.9 6.1 0.00 0.00 0.00 75 1020.2
20260507030903 59 283 0.9 4.3 0.00 0.00 0.00 75 1020.1
20260507030403 59 275 0.9 4.3 0.00 0.00 0.00 74 1020.1
20260507025903 59 215 0.0 1.7 0.00 0.00 0.00 74 1020.0
20260507024902 60 236 0.0 4.3 0.00 0.00 0.00 74 1019.8
20260507024402 60 89 0.0 4.3 0.00 0.00 0.00 73 1019.8
20260507023903 60 255 0.0 2.6 0.00 0.00 0.00 75 1019.8
20260507022903 61 207 0.0 1.7 0.00 0.00 0.00 74 1019.8
20260507022403 61 245 0.0 1.7 0.00 0.00 0.00 73 1019.7
20260507021903 61 247 0.0 0.0 0.00 0.00 0.00 72 1019.8
20260507021404 61 246 0.0 4.3 0.00 0.00 0.00 73 1019.7
20260507020903 62 311 0.0 4.3 0.00 0.00 0.00 72 1019.7
20260507015903 62 163 1.7 6.1 0.00 0.00 0.00 72 1019.9
20260507015402 62 355 0.0 4.3 0.00 0.00 0.00 73 1019.9
20260507014402 62 248 0.0 6.1 0.00 0.00 0.00 72 1019.8
20260507013903 62 254 0.9 6.1 0.00 0.00 0.00 71 1019.8
20260507012902 63 220 0.9 4.3 0.00 0.00 0.00 72 1020.0
20260507012403 63 243 0.9 4.3 0.00 0.00 0.00 70 1020.0
20260507011903 63 278 1.7 6.1 0.00 0.00 0.00 71 1019.9
20260507011402 63 224 2.6 6.1 0.00 0.00 0.00 69 1019.9
20260507005903 64 275 0.0 4.3 0.00 0.00 0.00 69 1019.9
20260507005402 64 218 0.9 4.3 0.00 0.00 0.00 68 1019.9
20260507004903 64 280 0.9 4.3 0.00 0.00 0.00 68 1019.8
20260507004403 65 238 0.0 2.6 0.00 0.00 0.00 69 1019.8
20260507003403 66 300 0.9 2.6 0.00 0.00 0.00 68 1019.8
20260507002902 66 256 0.0 4.3 0.00 0.00 0.00 68 1019.7
20260507002402 66 236 0.9 4.3 0.00 0.00 0.00 70 1019.7
20260507001403 65 208 1.7 5.2 0.00 0.00 0.00 70 1019.7
20260507000903 65 236 0.9 4.3 0.00 0.00 0.00 68 1019.8
20260507000405 65 74 0.0 1.7 0.00 0.00 0.00 70 1019.8
20260506235902 65 38 0.0 1.7 0.00 0.00 0.00 70 1019.7
20260506235402 65 272 0.9 1.7 0.00 0.00 0.00 71 1019.7
20260506234403 65 140 0.0 2.6 0.00 0.00 0.00 69 1019.7
20260506233903 65 254 0.0 2.6 0.00 0.00 0.00 70 1019.8
20260506233402 65 222 0.9 2.6 0.00 0.00 0.00 71 1019.8
20260506232904 65 64 0.9 1.7 0.00 0.00 0.00 70 1019.8
20260506231903 65 241 0.9 4.3 0.00 0.00 0.00 70 1019.8
20260506231402 66 284 1.7 4.3 0.00 0.00 0.00 70 1019.9
20260506230902 66 38 0.0 2.6 0.00 0.00 0.00 70 1019.9
20260506230402 66 251 0.0 2.6 0.00 0.00 0.00 69 1019.9
20260506225902 66 224 0.9 2.6 0.00 0.00 0.00 69 1020.0
20260506225403 66 252 0.9 2.6 0.00 0.00 0.00 67 1020.0
20260506224903 66 89 0.0 1.7 0.00 0.00 0.00 69 1020.1
20260506223902 65 11 0.0 1.7 0.00 0.00 0.00 70 1020.2
20260506223402 65 248 0.0 1.7 0.00 0.00 0.00 72 1020.2
20260506222903 65 220 0.9 1.7 0.00 0.00 0.00 70 1020.3
20260506222403 65 41 0.0 1.7 0.00 0.00 0.00 70 1020.3
20260506221903 65 41 0.0 1.7 0.00 0.00 0.00 69 1020.3
20260506221403 65 212 0.0 1.7 0.00 0.00 0.00 71 1020.3
20260506220902 65 288 0.0 2.6 0.00 0.00 0.00 72 1020.3
20260506220403 65 53 0.9 4.3 0.00 0.00 0.00 69 1020.4
20260506215902 65 34 1.7 4.3 0.00 0.00 0.00 69 1020.3
20260506215403 65 167 0.0 2.6 0.00 0.00 0.00 69 1020.4
20260506214902 65 19 0.0 2.6 0.00 0.00 0.00 69 1020.4
20260506214403 65 321 0.9 2.6 0.00 0.00 0.00 69 1020.3
20260506213903 65 49 0.0 2.6 0.00 0.00 0.00 69 1020.3
20260506213403 65 265 1.7 2.6 0.00 0.00 0.00 68 1020.4
20260506212903 65 129 0.9 2.6 0.00 0.00 0.00 69 1020.4
20260506212402 65 27 0.9 1.7 0.00 0.00 0.00 71 1020.5
20260506211902 65 9 0.0 1.7 0.00 0.00 0.00 72 1020.7
20260506210903 64 159 0.0 2.6 0.00 0.00 0.00 71 1020.7
20260506210403 64 35 0.9 2.6 0.00 0.00 0.00 73 1020.7
20260506205903 64 22 0.9 2.6 0.00 0.00 0.00 71 1020.7
20260506204902 64 286 0.0 1.7 0.00 0.00 0.00 71 1020.8
20260506204403 64 161 0.0 2.6 0.00 0.00 0.00 73 1020.7
20260506203903 63 272 0.0 2.6 0.00 0.00 0.00 73 1020.8
20260506203402 63 14 0.9 2.6 0.00 0.00 0.00 75 1020.8
20260506202903 63 264 0.9 2.6 0.00 0.00 0.00 74 1020.6
20260506202403 63 349 0.0 2.6 0.00 0.00 0.00 74 1020.7
20260506201903 63 170 0.0 1.7 0.00 0.00 0.00 73 1020.7
20260506201403 63 19 0.9 1.7 0.00 0.00 0.00 74 1020.7
20260506200902 62 300 0.0 1.7 0.00 0.00 0.00 74 1020.7
20260506200402 62 259 0.0 1.7 0.00 0.00 0.00 73 1020.8
20260506195903 62 276 0.0 4.3 0.00 0.00 0.00 72 1020.9
20260506195402 63 271 0.9 4.3 0.00 0.00 0.00 73 1020.9
20260506193402 63 257 0.9 2.6 0.00 0.00 0.00 73 1021.1
20260506192902 63 276 0.9 2.6 0.00 0.00 0.00 73 1021.1
20260506191903 62 276 0.9 4.3 0.00 0.00 0.00 75 1021.0
20260506191403 62 196 2.6 4.3 0.00 0.00 0.00 74 1021.0
20260506190403 62 348 0.0 2.6 0.00 0.00 0.00 76 1021.0
20260506185403 62 15 0.0 5.2 0.00 0.00 0.00 76 1020.9
20260506184403 61 261 0.0 5.2 0.00 0.00 0.00 77 1020.9
20260506183903 61 275 0.0 1.7 0.00 0.00 0.00 77 1020.9
20260506183403 61 296 0.9 1.7 0.00 0.00 0.00 78 1020.9
20260506182903 61 287 0.0 1.7 0.00 0.00 0.00 76 1020.8
20260506182403 61 225 0.9 1.7 0.00 0.00 0.00 78 1020.7
20260506181903 61 18 0.0 1.7 0.00 0.00 0.00 78 1020.9
20260506181403 60 234 0.0 1.7 0.00 0.00 0.00 78 1020.8
20260506180403 60 251 0.0 4.3 0.00 0.00 0.00 78 1020.7
20260506175903 60 282 0.0 4.3 0.00 0.00 0.00 79 1020.7
20260506175403 60 205 0.0 1.7 0.00 0.00 0.00 79 1020.8
20260506174903 59 203 0.9 2.6 0.00 0.00 0.00 78 1020.8
20260506173403 59 218 0.9 1.7 0.00 0.00 0.00 78 1020.7
20260506172903 59 248 0.0 1.7 0.00 0.00 0.00 80 1020.6
20260506172402 59 238 0.0 1.7 0.00 0.00 0.00 79 1020.5
20260506171904 59 306 0.9 2.6 0.00 0.00 0.00 79 1020.6
20260506171403 58 54 0.0 4.3 0.00 0.00 0.00 81 1020.5
20260506170403 58 30 0.9 4.3 0.00 0.00 0.00 80 1020.6
20260506165903 58 287 0.0 1.7 0.00 0.00 0.00 81 1020.6
20260506165402 58 150 0.0 1.7 0.00 0.00 0.00 80 1020.6
20260506164403 58 285 0.0 2.6 0.00 0.00 0.00 81 1020.6
20260506163402 58 242 0.0 1.7 0.00 0.00 0.00 82 1020.5
20260506162903 58 259 0.0 2.6 0.00 0.00 0.00 82 1020.6
20260506162404 58 194 0.9 2.6 0.00 0.00 0.00 82 1020.6
20260506161903 58 270 0.0 1.7 0.00 0.00 0.00 83 1020.4
20260506161402 58 318 0.9 1.7 0.00 0.00 0.00 82 1020.4
20260506160403 58 254 0.0 1.7 0.00 0.00 0.00 84 1020.2
20260506155902 57 258 0.0 1.7 0.00 0.00 0.00 83 1019.9
20260506154903 57 70 0.9 2.6 0.00 0.00 0.00 84 1019.8
20260506154403 57 97 0.9 2.6 0.00 0.00 0.00 84 1020.0
20260506153902 56 42 0.0 1.7 0.00 0.00 0.00 84 1020.1
20260506153402 56 99 0.0 1.7 0.00 0.00 0.00 84 1020.1
20260506152902 55 79 0.0 1.7 0.00 0.00 0.00 85 1020.4
20260506152403 55 21 0.0 0.0 0.00 0.00 0.00 86 1020.7
20260506151902 55 196 0.0 2.6 0.00 0.00 0.00 85 1020.6
20260506151403 55 314 0.0 2.6 0.00 0.00 0.00 87 1020.7
20260506150403 55 323 0.0 1.7 0.00 0.00 0.00 87 1020.6
20260506145903 55 177 0.0 1.7 0.00 0.00 0.00 87 1020.6
20260506145403 55 349 0.9 1.7 0.00 0.00 0.00 87 1020.4
20260506144904 55 282 0.0 1.7 0.00 0.00 0.00 87 1020.3
20260506144403 54 286 0.0 4.3 0.00 0.00 0.00 86 1020.3
20260506143903 54 261 1.7 4.3 0.00 0.00 0.00 86 1020.4
20260506143403 55 257 0.0 1.7 0.00 0.00 0.00 87 1020.3
20260506142903 55 246 0.0 1.7 0.00 0.00 0.00 87 1020.2
20260506142403 55 253 0.0 1.7 0.00 0.00 0.00 87 1020.0
20260506141902 54 242 0.0 0.9 0.00 0.00 0.00 87 1019.9
20260506140903 54 245 0.0 1.7 0.00 0.00 0.00 87 1019.8
20260506140403 54 241 0.0 1.7 0.00 0.00 0.00 87 1019.9
20260506135903 54 243 0.0 1.7 0.00 0.00 0.00 87 1019.9
20260506134903 54 283 0.0 1.7 0.00 0.00 0.00 87 1019.8
20260506134402 54 280 0.0 1.7 0.00 0.00 0.00 87 1019.7
20260506133902 54 274 0.0 1.7 0.00 0.00 0.00 87 1019.7
20260506132902 55 245 0.9 2.6 0.00 0.00 0.00 88 1019.7
20260506131903 55 257 0.0 0.0 0.00 0.00 0.00 88 1019.4
20260506130403 55 257 0.0 0.0 0.00 0.00 0.00 88 1019.2
20260506125903 55 257 0.0 0.0 0.00 0.00 0.00 87 1019.2
20260506125403 55 257 0.0 0.0 0.00 0.00 0.00 88 1019.1
20260506124903 55 257 0.0 0.0 0.00 0.00 0.00 88 1019.1
20260506123403 55 257 0.0 0.0 0.00 0.00 0.00 87 1019.1
20260506122902 55 257 0.0 0.0 0.00 0.00 0.00 87 1019.0
20260506121902 55 257 0.0 0.0 0.00 0.00 0.00 87 1019.0
20260506121403 55 257 0.0 0.0 0.00 0.00 0.00 88 1019.1
20260506120902 55 257 0.0 0.0 0.00 0.00 0.00 87 1019.1
20260506120402 55 257 0.0 0.0 0.00 0.00 0.00 87 1019.0
20260506115903 55 272 0.0 0.0 0.00 0.00 0.00 87 1019.0
20260506114903 55 285 0.0 0.0 0.00 0.00 0.00 87 1018.9
20260506114402 55 285 0.0 0.0 0.00 0.00 0.00 87 1018.7
20260506113903 55 285 0.0 0.0 0.00 0.00 0.00 87 1018.8
20260506113403 55 293 0.0 0.0 0.00 0.00 0.00 87 1018.8
20260506112903 55 340 0.0 0.0 0.00 0.00 0.00 87 1018.8
20260506111903 55 113 0.0 2.6 0.00 0.00 0.00 87 1018.6
20260506110903 55 210 0.0 0.0 0.00 0.00 0.00 87 1018.6
20260506110403 55 210 0.0 0.0 0.00 0.00 0.00 87 1018.4
20260506105903 55 210 0.0 0.0 0.00 0.00 0.00 87 1018.4
20260506105402 55 210 0.0 0.0 0.00 0.00 0.00 87 1018.3
20260506104402 55 210 0.0 0.0 0.00 0.00 0.00 87 1018.2
20260506103903 55 210 0.0 0.0 0.00 0.00 0.00 86 1018.1
20260506103403 55 210 0.0 0.0 0.00 0.00 0.00 87 1018.0
20260506102903 55 210 0.0 0.0 0.00 0.00 0.00 86 1018.0
20260506102403 55 210 0.0 0.0 0.00 0.00 0.00 86 1018.0
20260506101902 55 210 0.0 0.0 0.00 0.00 0.00 86 1017.9
20260506101403 55 210 0.0 0.0 0.00 0.00 0.00 86 1017.8
20260506100903 55 191 0.0 0.0 0.00 0.00 0.00 86 1017.8
20260506100404 55 191 0.0 0.0 0.00 0.00 0.00 86 1017.9
20260506095902 55 275 0.0 0.0 0.00 0.00 0.00 86 1017.8